Cleveland Burke, OH

11:50 PM EDT on May 25, 2017 (GMT -0400)
Burke Lakefront

Weather History for KBKL - December, 2012

Change the Weather History Date:

Friday, December 7, 2012

  Actual Average Record
Temperature  
Mean Temperature 44 °F -  
Max Temperature 48 °F 42 °F 69 °F (1998)
Min Temperature 39 °F 32 °F 15 °F (2005)
Degree Days  
Heating Degree Days 22    
Moisture  
Dew Point 41 °F    
Average Humidity 87    
Maximum Humidity 100    
Minimum Humidity 60    
Precipitation  
Precipitation 0.15 in - - ()
Sea Level Pressure  
Sea Level Pressure 29.94 in    
Wind  
Wind Speed 6 mph (SSE)    
Max Wind Speed 12 mph    
Max Gust Speed -    
Visibility 5 miles    
Events Rain    
Averages and records for this station are not official NWS values.
T = Trace of Precipitation, MM = Missing Value Source: NWS Daily Summary

Daily Weather History Graph

Daily Weather History Graph

Search for Another Location

Airport or City:

Trip Planner

Search our weather history database for the weather conditions in past years. The results will help you decide how hot, cold, wet, or windy it might be!

Date:

Astronomy

Dec. 07, 2012 Rise Set
Actual Time 7:40 AM EST 4:56 PM EST
Civil Twilight 7:08 AM EST 5:27 PM EST
Nautical Twilight 6:34 AM EST 6:02 PM EST
Astronomical Twilight 6:00 AM EST 6:36 PM EST
Moon 12:53 AM EST (12/7) 12:56 PM EST (12/7)
Length of Visible Light 10h 18m
Length of Day
9h 16m
Last Quarter, 39% of the Moon is Illuminated
Dec 7
Last Quarter
Dec 13
New
Dec 20
First Quarter
Dec 28
Full
Jan 4
Last Quarter

Hourly Weather History & Observations

Time (EST) Temp. Windchill Dew Point Humidity Pressure Visibility Wind Dir Wind Speed Gust Speed Precip Events Conditions
12:53 AM 41.0 °F 34.7 °F 28.0 °F 60% 29.98 in 10.0 mi SSE 10.4 mph - N/A   Mostly Cloudy
1:53 AM 41.0 °F 37.1 °F 28.9 °F 62% 29.98 in 10.0 mi South 5.8 mph - N/A   Overcast
2:53 AM 39.9 °F 33.4 °F 34.0 °F 79% 29.98 in 10.0 mi South 10.4 mph - 0.03 in Rain Light Rain
3:53 AM 41.0 °F 34.3 °F 35.1 °F 79% 29.98 in 10.0 mi South 11.5 mph - 0.00 in Rain Light Rain
4:53 AM 41.0 °F 37.1 °F 37.0 °F 86% 29.97 in 8.0 mi SSE 5.8 mph - 0.01 in   Mostly Cloudy
5:53 AM 41.0 °F 37.1 °F 37.9 °F 89% 29.96 in 10.0 mi SSE 5.8 mph - 0.00 in   Mostly Cloudy
6:53 AM 42.1 °F 37.7 °F 39.0 °F 89% 29.99 in 6.0 mi SSE 6.9 mph - N/A   Overcast
7:53 AM 43.0 °F 38.2 °F 39.9 °F 89% 29.98 in 6.0 mi South 8.1 mph - N/A   Overcast
8:53 AM 44.1 °F 41.5 °F 41.0 °F 89% 29.99 in 4.0 mi South 4.6 mph - N/A   Overcast
9:53 AM 46.0 °F 43.1 °F 42.1 °F 86% 29.99 in 6.0 mi SW 5.8 mph - N/A   Overcast
10:53 AM 46.0 °F 43.1 °F 41.0 °F 83% 29.99 in 6.0 mi SW 5.8 mph - N/A   Haze
11:53 AM 46.9 °F - 42.1 °F 83% 29.97 in 5.0 mi SW 5.8 mph - N/A   Haze
12:53 PM 46.9 °F - 42.1 °F 83% 29.96 in 6.0 mi West 5.8 mph - N/A   Haze
1:53 PM 46.0 °F - 42.1 °F 86% 29.93 in 6.0 mi Calm Calm - N/A   Overcast
2:53 PM 46.0 °F - 42.1 °F 86% 29.93 in 6.0 mi Calm Calm - N/A   Overcast
3:53 PM 48.0 °F - 42.1 °F 80% 29.92 in 7.0 mi SSE 5.8 mph - N/A   Overcast
4:53 PM 48.0 °F - 42.1 °F 80% 29.93 in 7.0 mi SSE 3.5 mph - N/A   Overcast
5:53 PM 46.9 °F - 42.1 °F 83% 29.93 in 7.0 mi SSE 3.5 mph - N/A   Overcast
6:53 PM 46.9 °F - 43.0 °F 86% 29.94 in 6.0 mi Calm Calm - 0.00 in Rain Light Rain
7:51 PM 44.6 °F 43.1 °F 42.8 °F 93% 29.92 in 3.0 mi NE 3.5 mph - 0.01 in Rain Light Rain
7:53 PM 45.0 °F 42.6 °F 43.0 °F 93% 29.93 in 3.0 mi ENE 4.6 mph - 0.01 in Rain Light Rain
8:01 PM 44.6 °F 42.2 °F 42.8 °F 93% 29.92 in 2.5 mi ENE 4.6 mph - 0.00 in Rain Light Rain
8:31 PM 44.6 °F 41.4 °F 42.8 °F 93% 29.91 in 2.5 mi NE 5.8 mph - 0.01 in Rain Light Rain
8:39 PM 44.6 °F 41.4 °F 42.8 °F 93% 29.91 in 2.5 mi NE 5.8 mph - 0.01 in Rain Light Rain
8:53 PM 44.1 °F 41.5 °F 43.0 °F 96% 29.92 in 3.0 mi NE 4.6 mph - 0.02 in Rain Light Rain
9:00 PM 44.6 °F 42.2 °F 42.8 °F 93% 29.91 in 2.5 mi NE 4.6 mph - 0.00 in Rain Light Rain
9:53 PM 46.0 °F - 44.1 °F 93% 29.91 in 3.0 mi Calm Calm - 0.02 in Rain Light Rain
10:00 PM 44.6 °F - 44.6 °F 100% 29.89 in 2.5 mi Calm Calm - 0.01 in Rain Light Rain
10:53 PM 46.0 °F - 45.0 °F 96% 29.89 in 2.5 mi Calm Calm - 0.03 in Rain Light Rain
11:27 PM 46.4 °F - 44.6 °F 93% 29.87 in 2.5 mi Calm Calm - 0.02 in Rain Light Rain
11:53 PM 45.0 °F - 44.1 °F 97% 29.87 in 1.8 mi Calm Calm - 0.03 in Rain Light Rain